Location: Frankfurt am Main
(50.1109°N, 8.6821°E)
Time: 17:56:56
(UTC+01:00)

ISS - Visible Passes

Search period start: 17 January 2020 00:00
Search period end: 27 January 2020 00:00
Orbit: 415 x 421 km, 51.6° (Epoch: 18 January)

Date Brightness Start Highest point End Pass type
(mag) Time Alt. Az. Time Alt. Az. Time Alt. Az.
21 Jan -1.8 19:12:29 10° SSW 19:14:05 20° S 19:14:05 20° S visible
22 Jan -1.9 18:25:10 10° S 18:27:28 17° SE 18:28:17 16° ESE visible
22 Jan -0.9 20:00:28 10° WSW 20:01:13 16° WSW 20:01:13 16° WSW visible
23 Jan -1.3 17:38:27 10° SSE 17:39:41 12° SE 17:40:56 10° ESE visible
23 Jan -3.1 19:12:35 10° SW 19:15:21 45° S 19:15:21 45° S visible
24 Jan -2.8 18:24:48 10° SW 18:27:55 35° SSE 18:29:24 23° E visible
24 Jan -1.1 20:01:11 10° W 20:02:20 20° W 20:02:20 20° W visible
25 Jan -2.2 17:37:12 10° SSW 17:40:01 25° SE 17:42:49 10° E visible
25 Jan -3.8 19:13:07 10° WSW 19:16:20 80° SW 19:16:20 80° SW visible
26 Jan -3.7 18:25:07 10° WSW 18:28:27 68° SSE 18:30:18 24° E visible
26 Jan -1.2 20:01:56 10° W 20:03:14 21° W 20:03:14 21° W visible
